Total_Precipitation_Accumulation
0.00 0.00 0.00 0.00 0.00 0.00 0.00 0.00 0.00 0.00 0.00 0.00 0.00 0.00 0.00 0.00 0.00 0.00 0.00 0.00 0.00 0.00 0.00 0.00 0.00 0.00 0.00 0.00 0.00 0.01 0.01 0.04 0.05 0.01 0.00 0.01 0.04 0.05 0.05 0.06 0.06 0.06 0.07
0.00 0.00 0.00 0.00 0.00 0.00 0.00 0.00 0.00 0.00 0.00 0.00 0.00 0.00 0.00 0.00 0.00 0.00 0.00 0.00 0.00 0.00 0.00 0.00 0.00 0.00 0.00 0.00 0.00 0.00 0.00 0.02 0.06 0.06 0.01 0.00 0.01 0.03 0.04 0.04 0.05 0.07 0.06
0.00 0.00 0.00 0.00 0.00 0.00 0.00 0.00 0.00 0.00 0.00 0.00 0.00 0.00 0.00 0.00 0.00 0.00 0.00 0.00 0.00 0.00 0.00 0.00 0.00 0.00 0.00 0.00 0.00 0.00 0.01 0.02 0.05 0.09 0.05 0.02 0.02 0.02 0.04 0.03 0.04 0.05 0.06
0.00 0.00 0.00 0.00 0.00 0.00 0.00 0.00 0.00 0.00 0.00 0.00 0.00 0.00 0.00 0.00 0.00 0.00 0.00 0.00 0.00 0.00 0.00 0.00 0.00 0.00 0.00 0.00 0.00 0.02 0.04 0.05 0.06 0.10 0.11 0.09 0.06 0.03 0.05 0.06 0.05 0.05 0.05
0.00 0.00 0.00 0.00 0.00 0.00 0.00 0.00 0.00 0.00 0.00 0.00 0.00 0.00 0.00 0.00 0.00 0.00 0.00 0.00 0.00 0.00 0.00 0.00 0.00 0.00 0.00 0.01 0.03 0.05 0.06 0.09 0.16 0.21 0.18 0.13 0.08 0.07 0.07 0.07 0.09 0.07 0.04
0.00 0.00 0.00 0.00 0.00 0.00 0.00 0.00 0.00 0.00 0.00 0.00 0.00 0.00 0.00 0.00 0.00 0.00 0.00 0.00 0.00 0.00 0.00 0.00 0.00 0.00 0.00 0.02 0.04 0.06 0.12 0.20 0.27 0.28 0.22 0.15 0.07 0.05 0.07 0.12 0.17 0.19 0.13
0.00 0.00 0.00 0.00 0.00 0.00 0.00 0.00 0.00 0.00 0.00 0.00 0.00 0.00 0.00 0.00 0.00 0.00 0.00 0.00 0.00 0.00 0.00 0.00 0.00 0.00 0.01 0.01 0.02 0.08 0.13 0.18 0.20 0.19 0.15 0.09 0.09 0.12 0.21 0.29 0.25 0.23 0.14
0.00 0.00 0.00 0.00 0.00 0.00 0.00 0.00 0.00 0.00 0.00 0.00 0.00 0.00 0.00 0.00 0.00 0.00 0.00 0.00 0.00 0.00 0.00 0.00 0.00 0.01 0.02 0.05 0.11 0.16 0.10 0.06 0.05 0.05 0.08 0.12 0.15 0.15 0.20 0.26 0.23 0.18 0.09
0.00 0.00 0.00 0.00 0.00 0.00 0.00 0.00 0.00 0.00 0.00 0.00 0.00 0.00 0.00 0.00 0.00 0.00 0.00 0.00 0.00 0.00 0.00 0.01 0.03 0.03 0.05 0.16 0.24 0.20 0.09 0.02 0.02 0.06 0.12 0.11 0.09 0.07 0.10 0.26 0.36 0.36 0.22
0.00 0.00 0.00 0.00 0.00 0.00 0.00 0.00 0.00 0.00 0.00 0.00 0.00 0.00 0.00 0.00 0.00 0.00 0.01 0.01 0.01 0.01 0.02 0.02 0.03 0.05 0.12 0.23 0.21 0.16 0.08 0.05 0.09 0.06 0.03 0.01 0.01 0.02 0.08 0.23 0.56 0.75 0.48
0.00 0.00 0.00 0.00 0.00 0.00 0.00 0.00 0.00 0.00 0.00 0.00 0.00 0.00 0.00 0.00 0.00 0.00 0.01 0.03 0.05 0.07 0.06 0.03 0.02 0.09 0.19 0.19 0.12 0.06 0.08 0.15 0.11 0.03 0.01 0.01 0.01 0.02 0.04 0.08 0.29 0.75 0.87
0.00 0.00 0.00 0.00 0.00 0.00 0.00 0.00 0.00 0.00 0.00 0.00 0.00 0.00 0.00 0.00 0.00 0.00 0.02 0.06 0.10 0.11 0.07 0.04 0.06 0.15 0.13 0.07 0.03 0.04 0.10 0.09 0.03 0.03 0.03 0.03 0.03 0.03 0.04 0.05 0.09 0.23 0.50
0.00 0.00 0.00 0.00 0.00 0.00 0.00 0.00 0.00 0.00 0.00 0.00 0.00 0.00 0.00 0.00 0.00 0.00 0.02 0.07 0.11 0.10 0.08 0.12 0.13 0.08 0.03 0.01 0.01 0.03 0.03 0.02 0.06 0.12 0.10 0.06 0.04 0.04 0.06 0.08 0.09 0.13 0.20
0.00 0.00 0.00 0.00 0.00 0.00 0.00 0.00 0.00 0.00 0.00 0.00 0.00 0.00 0.01 0.00 0.00 0.01 0.04 0.06 0.08 0.09 0.12 0.13 0.05 0.01 0.00 0.00 0.01 0.00 0.01 0.02 0.11 0.20 0.16 0.09 0.05 0.06 0.09 0.16 0.25 0.27 0.32
0.00 0.00 0.00 0.00 0.00 0.00 0.00 0.00 0.00 0.00 0.00 0.00 0.01 0.01 0.02 0.02 0.02 0.08 0.11 0.09 0.12 0.14 0.13 0.04 0.00 0.00 0.01 0.01 0.00 0.00 0.01 0.02 0.06 0.11 0.16 0.15 0.10 0.10 0.12 0.21 0.37 0.46 0.49
0.00 0.00 0.00 0.00 0.00 0.00 0.00 0.00 0.00 0.00 0.00 0.00 0.01 0.02 0.02 0.03 0.05 0.08 0.09 0.13 0.15 0.11 0.05 0.01 0.01 0.02 0.02 0.02 0.02 0.03 0.02 0.04 0.09 0.17 0.20 0.21 0.22 0.22 0.23 0.27 0.42 0.53 0.53
0.00 0.00 0.00 0.00 0.00 0.00 0.00 0.00 0.00 0.00 0.00 0.00 0.00 0.01 0.02 0.03 0.05 0.06 0.09 0.12 0.06 0.03 0.01 0.03 0.04 0.03 0.03 0.03 0.05 0.07 0.07 0.06 0.14 0.24 0.29 0.30 0.31 0.29 0.33 0.38 0.45 0.48 0.46
0.00 0.00 0.00 0.00 0.00 0.00 0.00 0.00 0.00 0.00 0.00 0.00 0.00 0.00 0.01 0.02 0.03 0.06 0.08 0.05 0.01 0.01 0.03 0.05 0.04 0.03 0.04 0.06 0.08 0.11 0.12 0.11 0.16 0.25 0.30 0.33 0.36 0.39 0.40 0.42 0.46 0.47 0.40
0.00 0.00 0.00 0.00 0.00 0.00 0.00 0.00 0.00 0.00 0.00 0.00 0.00 0.00 0.00 0.01 0.03 0.04 0.03 0.01 0.02 0.04 0.04 0.04 0.03 0.04 0.06 0.09 0.11 0.13 0.17 0.21 0.26 0.34 0.36 0.38 0.41 0.44 0.42 0.40 0.38 0.30 0.21
0.00 0.00 0.00 0.00 0.00 0.00 0.00 0.00 0.00 0.00 0.01 0.01 0.01 0.00 0.00 0.02 0.04 0.01 0.00 0.01 0.04 0.05 0.04 0.04 0.03 0.04 0.08 0.12 0.14 0.17 0.20 0.23 0.28 0.33 0.37 0.41 0.43 0.45 0.41 0.32 0.23 0.17 0.13
0.00 0.00 0.00 0.00 0.00 0.00 0.00 0.00 0.01 0.01 0.01 0.01 0.00 0.00 0.03 0.04 0.02 0.01 0.01 0.02 0.03 0.04 0.04 0.05 0.05 0.07 0.11 0.14 0.17 0.18 0.22 0.26 0.33 0.39 0.41 0.39 0.37 0.31 0.23 0.18 0.15 0.14 0.13
0.00 0.00 0.00 0.00 0.00 0.00 0.00 0.01 0.01 0.01 0.01 0.01 0.01 0.01 0.02 0.01 0.00 0.01 0.02 0.02 0.02 0.02 0.03 0.06 0.08 0.09 0.18 0.27 0.33 0.34 0.28 0.27 0.31 0.36 0.35 0.28 0.21 0.18 0.15 0.14 0.13 0.12 0.11
0.00 0.00 0.00 0.00 0.00 0.00 0.00 0.00 0.00 0.01 0.01 0.01 0.01 0.01 0.00 0.01 0.01 0.02 0.02 0.02 0.01 0.02 0.02 0.05 0.09 0.10 0.14 0.26 0.37 0.52 0.57 0.48 0.42 0.42 0.39 0.28 0.20 0.19 0.19 0.17 0.14 0.11 0.09
0.00 0.00 0.00 0.00 0.00 0.00 0.00 0.00 0.00 0.00 0.01 0.01 0.01 0.01 0.01 0.02 0.02 0.02 0.02 0.01 0.02 0.02 0.02 0.06 0.10 0.13 0.16 0.27 0.36 0.44 0.53 0.59 0.65 0.60 0.53 0.46 0.31 0.22 0.18 0.15 0.12 0.09 0.07
0.00 0.00 0.00 0.00 0.00 0.00 0.00 0.00 0.00 0.00 0.01 0.01 0.01 0.02 0.02 0.02 0.02 0.02 0.02 0.02 0.02 0.02 0.01 0.04 0.11 0.17 0.21 0.28 0.36 0.42 0.43 0.48 0.53 0.48 0.34 0.26 0.20 0.17 0.16 0.13 0.10 0.07 0.05
0.00 0.00 0.00 0.00 0.00 0.00 0.00 0.00 0.01 0.01 0.02 0.03 0.03 0.03 0.03 0.03 0.03 0.03 0.03 0.03 0.03 0.03 0.02 0.03 0.07 0.15 0.23 0.29 0.29 0.33 0.38 0.34 0.24 0.15 0.11 0.11 0.12 0.11 0.10 0.09 0.07 0.05 0.04